Location: Alulod
(14.2076°N, 120.8898°E)
Time: 04:09:05
(UTC+00:00)

USA 238 DEB - Pass Details

Date: 15 March 2026
Orbit: 883 x 1328 km, 63.4° (Epoch: 10 January)

Event Time Altitude Azimuth Distance (km) Brightness Sun altitude
Rises 12:04:40 0° 248° (WSW) 3,474 7.3 -29.4°
Reaches altitude 10° 12:08:34 10° 274° (W) 2,555 6.6 -30.3°
Maximum altitude 12:11:21 13° 302° (WNW) 2,338 6.2 -31.0°
Drops below altitude 10° 12:14:12 10° 331° (NNW) 2,623 6.1 -31.7°
Sets 12:18:21 0° 357° (N) 3,644 6.6 -32.7°
